Time,TemperatureF,DewpointF,PressureIn,WindDirection,WindDirectionDegrees,WindSpeedMPH,WindSpeedGustMPH,Humidity,HourlyPrecipIn,Conditions,Clouds,dailyrainin,SoftwareType,DateUTC
2013-07-24 00:01:00,72.2,67.5,29.86,NNE,22,0.0,4.3,85,0.06,,,0.00,WUHU21623XXSP,2013-07-24 05:01:00,
2013-07-24 00:06:00,72.3,67.5,29.87,SW,225,0.0,4.3,85,0.04,,,0.00,WUHU21623XXSP,2013-07-24 05:06:00,
2013-07-24 00:11:00,72.3,67.6,29.88,SSW,202,1.6,1.6,85,0.02,,,0.00,WUHU21623XXSP,2013-07-24 05:11:00,
2013-07-24 00:16:00,72.3,67.6,29.88,SSW,202,0.0,3.6,85,0.02,,,0.00,WUHU21623XXSP,2013-07-24 05:16:00,
2013-07-24 00:21:00,72.1,67.4,29.88,SSW,202,0.0,3.6,85,0.02,,,0.00,WUHU21623XXSP,2013-07-24 05:21:00,
2013-07-24 00:26:00,72.2,67.5,29.89,WSW,247,0.0,0.0,85,0.02,,,0.00,WUHU21623XXSP,2013-07-24 05:26:00,
2013-07-24 00:31:00,72.2,67.5,29.90,WSW,247,0.0,0.0,85,0.02,,,0.00,WUHU21623XXSP,2013-07-24 05:31:00,
2013-07-24 00:36:00,72.2,67.8,29.90,WSW,247,0.0,0.0,86,0.02,,,0.00,WUHU21623XXSP,2013-07-24 05:36:00,
2013-07-24 00:41:00,72.1,67.7,29.89,WSW,247,0.0,0.0,86,0.02,,,0.00,WUHU21623XXSP,2013-07-24 05:41:00,
2013-07-24 00:46:00,72.1,67.7,29.89,West,270,0.0,0.0,86,0.00,,,0.00,WUHU21623XXSP,2013-07-24 05:46:00,
2013-07-24 00:51:00,72.1,67.7,29.90,West,270,0.0,0.0,86,0.00,,,0.00,WUHU21623XXSP,2013-07-24 05:51:00,
2013-07-24 00:56:00,72.2,67.8,29.90,West,270,0.0,0.0,86,0.00,,,0.00,WUHU21623XXSP,2013-07-24 05:56:00,
2013-07-24 01:01:00,72.2,67.8,29.90,West,270,0.0,0.0,86,0.00,,,0.00,WUHU21623XXSP,2013-07-24 06:01:00,
2013-07-24 01:06:00,72.2,67.8,29.91,West,270,0.0,0.0,86,0.00,,,0.00,WUHU21623XXSP,2013-07-24 06:06:00,
2013-07-24 01:11:00,72.2,68.2,29.91,West,270,0.0,0.0,87,0.00,,,0.00,WUHU21623XXSP,2013-07-24 06:11:00,
2013-07-24 01:16:00,72.3,68.2,29.90,West,270,0.0,0.0,87,0.00,,,0.00,WUHU21623XXSP,2013-07-24 06:16:00,
2013-07-24 01:21:00,72.3,67.9,29.89,West,270,0.0,0.0,86,0.00,,,0.00,WUHU21623XXSP,2013-07-24 06:21:00,
2013-07-24 01:26:00,72.3,67.9,29.89,WSW,247,0.0,0.0,86,0.00,,,0.00,WUHU21623XXSP,2013-07-24 06:26:00,
2013-07-24 01:31:00,72.4,68.0,29.88,West,270,0.0,0.0,86,0.00,,,0.00,WUHU21623XXSP,2013-07-24 06:31:00,
2013-07-24 01:36:00,72.4,68.3,29.88,West,270,0.0,0.0,87,0.00,,,0.00,WUHU21623XXSP,2013-07-24 06:36:00,
2013-07-24 01:41:00,72.3,68.3,29.88,West,270,0.0,0.0,87,0.00,,,0.00,WUHU21623XXSP,2013-07-24 06:41:00,
2013-07-24 01:46:00,72.4,68.3,29.88,West,270,0.0,0.0,87,0.00,,,0.00,WUHU21623XXSP,2013-07-24 06:46:00,
2013-07-24 01:51:00,72.2,68.1,29.88,West,270,0.0,0.0,87,0.00,,,0.00,WUHU21623XXSP,2013-07-24 06:51:00,
2013-07-24 01:56:00,72.2,68.1,29.88,West,270,0.0,0.0,87,0.00,,,0.00,WUHU21623XXSP,2013-07-24 06:56:00,
2013-07-24 02:02:00,72.2,68.2,29.88,West,270,0.0,0.0,87,0.00,,,0.00,WUHU21623XXSP,2013-07-24 07:02:00,
2013-07-24 02:07:00,72.3,68.2,29.87,West,270,0.0,0.0,87,0.00,,,0.00,WUHU21623XXSP,2013-07-24 07:07:00,
2013-07-24 02:12:00,72.3,68.2,29.87,West,270,0.0,0.0,87,0.00,,,0.00,WUHU21623XXSP,2013-07-24 07:12:00,
2013-07-24 02:17:00,72.3,68.3,29.88,West,270,0.0,0.0,87,0.00,,,0.00,WUHU21623XXSP,2013-07-24 07:17:00,
2013-07-24 02:22:00,72.2,68.1,29.89,West,270,0.0,0.0,87,0.00,,,0.00,WUHU21623XXSP,2013-07-24 07:22:00,
2013-07-24 02:27:00,72.2,68.1,29.89,West,270,0.0,0.0,87,0.00,,,0.00,WUHU21623XXSP,2013-07-24 07:27:00,
2013-07-24 02:32:00,72.2,68.2,29.89,West,270,0.0,0.0,87,0.00,,,0.00,WUHU21623XXSP,2013-07-24 07:32:00,
2013-07-24 02:37:00,72.3,68.2,29.89,West,270,0.0,0.0,87,0.00,,,0.00,WUHU21623XXSP,2013-07-24 07:37:00,
2013-07-24 02:42:00,72.3,68.2,29.89,West,270,0.0,0.0,87,0.00,,,0.00,WUHU21623XXSP,2013-07-24 07:42:00,
2013-07-24 02:47:00,72.1,68.1,29.89,West,270,0.0,0.0,87,0.00,,,0.00,WUHU21623XXSP,2013-07-24 07:47:00,
2013-07-24 02:52:00,72.2,68.1,29.89,West,270,0.0,0.0,87,0.00,,,0.00,WUHU21623XXSP,2013-07-24 07:52:00,
2013-07-24 02:57:00,72.2,68.1,29.89,West,270,0.0,0.0,87,0.00,,,0.00,WUHU21623XXSP,2013-07-24 07:57:00,
2013-07-24 03:02:00,72.2,68.2,29.88,West,270,0.0,0.0,87,0.00,,,0.00,WUHU21623XXSP,2013-07-24 08:02:00,
2013-07-24 03:08:00,72.3,68.2,29.88,West,270,0.0,0.0,87,0.00,,,0.00,WUHU21623XXSP,2013-07-24 08:08:00,
2013-07-24 03:13:00,72.1,68.4,29.87,West,270,0.0,0.0,88,0.00,,,0.00,WUHU21623XXSP,2013-07-24 08:13:00,
2013-07-24 03:18:00,72.1,68.4,29.87,West,270,0.0,0.0,88,0.00,,,0.00,WUHU21623XXSP,2013-07-24 08:18:00,
2013-07-24 03:23:00,72.1,68.1,29.87,West,270,0.0,0.0,87,0.00,,,0.00,WUHU21623XXSP,2013-07-24 08:23:00,
2013-07-24 03:28:00,72.0,67.9,29.86,West,270,0.0,0.0,87,0.00,,,0.00,WUHU21623XXSP,2013-07-24 08:28:00,
2013-07-24 03:33:00,72.0,67.9,29.86,West,270,0.0,0.0,87,0.00,,,0.00,WUHU21623XXSP,2013-07-24 08:33:00,
2013-07-24 03:38:00,71.8,67.7,29.86,West,270,0.0,0.0,87,0.00,,,0.00,WUHU21623XXSP,2013-07-24 08:38:00,
2013-07-24 03:43:00,71.8,67.7,29.86,West,270,0.0,0.0,87,0.00,,,0.00,WUHU21623XXSP,2013-07-24 08:43:00,
2013-07-24 03:48:00,71.8,67.7,29.86,West,270,0.0,0.0,87,0.00,,,0.00,WUHU21623XXSP,2013-07-24 08:48:00,
2013-07-24 03:53:00,71.6,67.5,29.86,West,270,0.0,0.0,87,0.00,,,0.00,WUHU21623XXSP,2013-07-24 08:53:00,
2013-07-24 03:58:00,71.4,67.3,29.86,West,270,0.0,0.0,87,0.00,,,0.00,WUHU21623XXSP,2013-07-24 08:58:00,
2013-07-24 04:03:00,71.4,67.3,29.86,West,270,0.0,0.0,87,0.00,,,0.00,WUHU21623XXSP,2013-07-24 09:03:00,
2013-07-24 04:08:00,71.4,67.3,29.85,West,270,0.0,0.0,87,0.00,,,0.00,WUHU21623XXSP,2013-07-24 09:08:00,
2013-07-24 04:13:00,71.4,67.3,29.85,West,270,0.0,0.0,87,0.00,,,0.00,WUHU21623XXSP,2013-07-24 09:13:00,
2013-07-24 04:18:00,71.2,67.2,29.85,West,270,0.0,0.0,87,0.00,,,0.00,WUHU21623XXSP,2013-07-24 09:18:00,
2013-07-24 04:23:00,71.2,67.2,29.85,West,270,0.0,0.0,87,0.00,,,0.00,WUHU21623XXSP,2013-07-24 09:23:00,
2013-07-24 04:28:00,71.2,67.2,29.86,West,270,0.0,0.0,87,0.00,,,0.00,WUHU21623XXSP,2013-07-24 09:28:00,
2013-07-24 04:33:00,71.2,67.2,29.85,West,270,0.0,0.0,87,0.00,,,0.00,WUHU21623XXSP,2013-07-24 09:33:00,
2013-07-24 04:38:00,70.9,66.8,29.85,West,270,0.0,0.0,87,0.00,,,0.00,WUHU21623XXSP,2013-07-24 09:38:00,
2013-07-24 04:43:00,70.9,66.8,29.86,West,270,0.0,0.0,87,0.00,,,0.00,WUHU21623XXSP,2013-07-24 09:43:00,
2013-07-24 04:48:00,70.9,67.1,29.86,West,270,0.0,0.0,88,0.00,,,0.00,WUHU21623XXSP,2013-07-24 09:48:00,
2013-07-24 04:53:00,70.7,67.0,29.87,West,270,0.0,0.0,88,0.00,,,0.00,WUHU21623XXSP,2013-07-24 09:53:00,
2013-07-24 04:58:00,70.7,67.0,29.87,West,270,0.0,0.0,88,0.00,,,0.00,WUHU21623XXSP,2013-07-24 09:58:00,
2013-07-24 05:03:00,70.5,66.8,29.87,West,270,0.0,0.0,88,0.00,,,0.00,WUHU21623XXSP,2013-07-24 10:03:00,
2013-07-24 05:08:00,70.5,66.8,29.87,West,270,0.0,0.0,88,0.00,,,0.00,WUHU21623XXSP,2013-07-24 10:08:00,
2013-07-24 05:13:00,70.5,66.8,29.87,West,270,0.0,0.0,88,0.00,,,0.00,WUHU21623XXSP,2013-07-24 10:13:00,
2013-07-24 05:18:00,70.3,66.6,29.87,West,270,0.0,0.0,88,0.00,,,0.00,WUHU21623XXSP,2013-07-24 10:18:00,
2013-07-24 05:23:00,70.3,66.6,29.87,West,270,0.0,0.0,88,0.00,,,0.00,WUHU21623XXSP,2013-07-24 10:23:00,
2013-07-24 05:28:00,70.3,66.6,29.87,West,270,0.0,0.0,88,0.00,,,0.00,WUHU21623XXSP,2013-07-24 10:28:00,
2013-07-24 05:33:00,70.2,66.4,29.86,West,270,0.0,0.0,88,0.00,,,0.00,WUHU21623XXSP,2013-07-24 10:33:00,
2013-07-24 05:38:00,70.2,66.4,29.86,West,270,0.0,0.0,88,0.00,,,0.00,WUHU21623XXSP,2013-07-24 10:38:00,
2013-07-24 05:43:00,70.0,66.2,29.86,West,270,0.0,0.0,88,0.00,,,0.00,WUHU21623XXSP,2013-07-24 10:43:00,
2013-07-24 05:48:00,70.0,66.2,29.86,West,270,0.0,0.0,88,0.00,,,0.00,WUHU21623XXSP,2013-07-24 10:48:00,
2013-07-24 05:53:00,70.0,66.4,29.86,West,270,0.0,0.0,88,0.00,,,0.00,WUHU21623XXSP,2013-07-24 10:53:00,
2013-07-24 05:58:00,70.0,66.2,29.86,West,270,0.0,0.0,88,0.00,,,0.00,WUHU21623XXSP,2013-07-24 10:58:00,
2013-07-24 06:03:00,70.2,66.4,29.86,West,270,0.0,0.0,88,0.00,,,0.00,WUHU21623XXSP,2013-07-24 11:03:00,
2013-07-24 06:08:00,70.2,66.4,29.87,West,270,0.0,0.0,88,0.00,,,0.00,WUHU21623XXSP,2013-07-24 11:08:00,
2013-07-24 06:13:00,70.2,66.4,29.87,West,270,0.0,0.0,88,0.00,,,0.00,WUHU21623XXSP,2013-07-24 11:13:00,
2013-07-24 06:18:00,70.3,66.6,29.88,West,270,0.0,0.0,88,0.00,,,0.00,WUHU21623XXSP,2013-07-24 11:18:00,
2013-07-24 06:23:00,70.3,66.6,29.88,West,270,0.0,0.0,88,0.00,,,0.00,WUHU21623XXSP,2013-07-24 11:23:00,
2013-07-24 06:29:00,70.5,66.8,29.87,West,270,0.0,0.0,88,0.00,,,0.00,WUHU21623XXSP,2013-07-24 11:29:00,
2013-07-24 06:34:00,70.5,66.8,29.87,West,270,0.0,0.0,88,0.00,,,0.00,WUHU21623XXSP,2013-07-24 11:34:00,
2013-07-24 06:39:00,70.7,66.8,29.87,West,270,0.0,0.0,88,0.00,,,0.00,WUHU21623XXSP,2013-07-24 11:39:00,
2013-07-24 06:43:00,70.9,67.5,29.88,West,270,0.0,0.0,89,0.00,,,0.00,WUHU21623XXSP,2013-07-24 11:43:00,
2013-07-24 06:48:00,70.9,67.5,29.88,West,270,0.0,0.0,89,0.00,,,0.00,WUHU21623XXSP,2013-07-24 11:48:00,
2013-07-24 06:54:00,71.2,67.8,29.88,West,270,0.0,0.0,89,0.00,,,0.00,WUHU21623XXSP,2013-07-24 11:54:00,
2013-07-24 06:59:00,71.4,68.0,29.88,WSW,247,0.0,0.0,89,0.00,,,0.00,WUHU21623XXSP,2013-07-24 11:59:00,
2013-07-24 07:04:00,71.6,68.2,29.89,WSW,247,0.0,0.0,89,0.00,,,0.00,WUHU21623XXSP,2013-07-24 12:04:00,
2013-07-24 07:09:00,72.1,68.6,29.89,WSW,247,0.0,0.0,89,0.00,,,0.00,WUHU21623XXSP,2013-07-24 12:09:00,
2013-07-24 07:14:00,72.3,68.9,29.89,WSW,247,0.0,0.0,89,0.00,,,0.00,WUHU21623XXSP,2013-07-24 12:14:00,
2013-07-24 07:19:00,72.7,69.1,29.89,WSW,247,0.0,0.0,89,0.00,,,0.00,WUHU21623XXSP,2013-07-24 12:19:00,
2013-07-24 07:24:00,73.0,69.6,29.89,WSW,247,0.0,0.0,89,0.00,,,0.00,WUHU21623XXSP,2013-07-24 12:24:00,
2013-07-24 07:28:00,73.2,69.8,29.89,WSW,247,0.0,0.0,89,0.00,,,0.00,WUHU21623XXSP,2013-07-24 12:28:00,
2013-07-24 07:33:00,73.6,70.2,29.89,WSW,247,0.0,0.0,89,0.00,,,0.00,WUHU21623XXSP,2013-07-24 12:33:00,
2013-07-24 07:38:00,74.5,71.1,29.89,WSW,247,0.0,0.0,89,0.00,,,0.00,WUHU21623XXSP,2013-07-24 12:38:00,
2013-07-24 07:43:00,75.0,71.6,29.90,WSW,247,0.0,0.0,89,0.00,,,0.00,WUHU21623XXSP,2013-07-24 12:43:00,
2013-07-24 07:49:00,75.4,72.0,29.90,WSW,247,0.0,0.0,89,0.00,,,0.00,WUHU21623XXSP,2013-07-24 12:49:00,
2013-07-24 07:54:00,75.9,72.5,29.90,WSW,247,0.0,0.0,89,0.00,,,0.00,WUHU21623XXSP,2013-07-24 12:54:00,
2013-07-24 07:59:00,76.5,73.0,29.90,WSW,247,0.0,0.0,89,0.00,,,0.00,WUHU21623XXSP,2013-07-24 12:59:00,
2013-07-24 08:04:00,76.8,73.0,29.91,WSW,247,4.3,4.3,88,0.00,,,0.00,WUHU21623XXSP,2013-07-24 13:04:00,
2013-07-24 08:08:00,76.6,72.5,29.91,SE,135,0.0,4.3,87,0.00,,,0.00,WUHU21623XXSP,2013-07-24 13:08:00,
2013-07-24 08:13:00,76.3,71.8,29.91,WSW,247,4.0,4.0,86,0.00,,,0.00,WUHU21623XXSP,2013-07-24 13:13:00,
2013-07-24 08:18:00,75.9,71.1,29.91,WSW,247,0.0,4.0,85,0.00,,,0.00,WUHU21623XXSP,2013-07-24 13:18:00,
2013-07-24 08:23:00,75.9,71.1,29.91,WSW,247,4.5,5.1,85,0.00,,,0.00,WUHU21623XXSP,2013-07-24 13:23:00,
2013-07-24 08:29:00,76.1,70.9,29.91,WSW,247,5.8,5.8,84,0.00,,,0.00,WUHU21623XXSP,2013-07-24 13:29:00,
2013-07-24 08:33:00,75.9,70.4,29.91,WSW,247,8.1,8.1,83,0.00,,,0.00,WUHU21623XXSP,2013-07-24 13:33:00,
2013-07-24 08:39:00,75.7,70.2,29.91,WSW,247,6.7,8.1,83,0.00,,,0.00,WUHU21623XXSP,2013-07-24 13:39:00,
2013-07-24 08:44:00,75.6,70.2,29.92,WSW,247,3.6,6.7,83,0.00,,,0.00,WUHU21623XXSP,2013-07-24 13:44:00,
2013-07-24 08:49:00,75.7,70.2,29.92,WSW,247,0.0,3.6,83,0.00,,,0.00,WUHU21623XXSP,2013-07-24 13:49:00,
2013-07-24 08:54:00,75.7,70.2,29.92,WSW,247,0.0,1.3,83,0.00,,,0.00,WUHU21623XXSP,2013-07-24 13:54:00,
2013-07-24 08:59:00,75.9,70.4,29.92,WSW,247,0.7,1.3,83,0.00,,,0.00,WUHU21623XXSP,2013-07-24 13:59:00,
2013-07-24 09:04:00,75.9,70.4,29.92,WSW,247,0.0,1.3,83,0.00,,,0.00,WUHU21623XXSP,2013-07-24 14:04:00,
2013-07-24 09:09:00,76.3,70.4,29.93,WSW,247,0.0,2.5,82,0.00,,,0.00,WUHU21623XXSP,2013-07-24 14:09:00,
2013-07-24 09:14:00,76.6,70.7,29.92,WSW,247,0.0,2.5,82,0.00,,,0.00,WUHU21623XXSP,2013-07-24 14:14:00,
2013-07-24 09:19:00,76.8,70.2,29.92,WSW,247,2.2,2.2,80,0.00,,,0.00,WUHU21623XXSP,2013-07-24 14:19:00,
2013-07-24 09:24:00,77.2,70.1,29.92,WSW,247,5.4,5.4,79,0.00,,,0.00,WUHU21623XXSP,2013-07-24 14:24:00,
2013-07-24 09:29:00,77.2,69.7,29.92,WSW,247,1.8,5.4,78,0.00,,,0.00,WUHU21623XXSP,2013-07-24 14:29:00,
2013-07-24 09:34:00,77.4,69.9,29.92,WSW,247,2.2,2.2,78,0.00,,,0.00,WUHU21623XXSP,2013-07-24 14:34:00,
2013-07-24 09:39:00,77.5,69.7,29.92,WSW,247,0.0,2.2,77,0.00,,,0.00,WUHU21623XXSP,2013-07-24 14:39:00,
2013-07-24 09:44:00,77.7,70.3,29.92,WSW,247,0.0,1.1,78,0.00,,,0.00,WUHU21623XXSP,2013-07-24 14:44:00,
2013-07-24 09:49:00,78.1,70.6,29.92,WSW,247,0.0,0.0,78,0.00,,,0.00,WUHU21623XXSP,2013-07-24 14:49:00,
2013-07-24 09:54:00,79.2,71.7,29.92,WSW,247,0.0,0.0,78,0.00,,,0.00,WUHU21623XXSP,2013-07-24 14:54:00,
2013-07-24 09:59:00,80.1,71.8,29.92,WSW,247,0.0,0.0,76,0.00,,,0.00,WUHU21623XXSP,2013-07-24 14:59:00,
2013-07-24 10:04:00,80.6,71.6,29.92,WSW,247,0.0,0.0,74,0.00,,,0.00,WUHU21623XXSP,2013-07-24 15:04:00,
2013-07-24 10:09:00,81.1,71.7,29.93,WSW,247,0.0,0.0,73,0.00,,,0.00,WUHU21623XXSP,2013-07-24 15:09:00,
2013-07-24 10:14:00,81.5,71.6,29.93,WSW,247,0.0,0.0,72,0.00,,,0.00,WUHU21623XXSP,2013-07-24 15:14:00,
2013-07-24 10:19:00,81.7,71.8,29.93,WSW,247,0.0,0.0,72,0.00,,,0.00,WUHU21623XXSP,2013-07-24 15:19:00,
2013-07-24 10:24:00,81.7,71.3,29.93,WSW,247,0.0,0.0,71,0.00,,,0.00,WUHU21623XXSP,2013-07-24 15:24:00,
2013-07-24 10:29:00,82.0,72.1,29.93,WSW,247,0.0,0.0,72,0.00,,,0.00,WUHU21623XXSP,2013-07-24 15:29:00,
2013-07-24 10:34:00,82.9,72.5,29.93,WSW,247,0.0,0.0,71,0.00,,,0.00,WUHU21623XXSP,2013-07-24 15:34:00,
2013-07-24 10:39:00,83.8,72.6,29.93,WSW,247,0.0,0.0,69,0.00,,,0.00,WUHU21623XXSP,2013-07-24 15:39:00,
2013-07-24 10:44:00,84.2,72.1,29.93,WSW,247,0.0,0.0,67,0.00,,,0.00,WUHU21623XXSP,2013-07-24 15:44:00,
2013-07-24 10:49:00,84.0,71.4,29.93,WSW,247,0.0,0.0,66,0.00,,,0.00,WUHU21623XXSP,2013-07-24 15:49:00,
2013-07-24 10:54:00,84.2,72.1,29.93,WSW,247,5.6,5.6,67,0.00,,,0.00,WUHU21623XXSP,2013-07-24 15:54:00,
2013-07-24 10:59:00,84.7,72.1,29.93,WSW,247,0.0,5.6,66,0.00,,,0.00,WUHU21623XXSP,2013-07-24 15:59:00,
2013-07-24 11:04:00,85.8,73.1,29.93,WSW,247,0.0,0.0,66,0.00,,,0.00,WUHU21623XXSP,2013-07-24 16:04:00,
2013-07-24 11:09:00,86.2,73.0,29.93,WSW,247,0.0,0.0,64,0.00,,,0.00,WUHU21623XXSP,2013-07-24 16:09:00,
2013-07-24 11:14:00,85.8,72.5,29.93,WSW,247,0.0,0.0,64,0.00,,,0.00,WUHU21623XXSP,2013-07-24 16:14:00,
2013-07-24 11:19:00,85.8,72.0,29.93,WSW,247,0.7,0.7,63,0.00,,,0.00,WUHU21623XXSP,2013-07-24 16:19:00,
2013-07-24 11:24:00,85.5,72.2,29.93,WSW,247,7.2,7.2,64,0.00,,,0.00,WUHU21623XXSP,2013-07-24 16:24:00,
2013-07-24 11:29:00,85.7,72.4,29.93,WSW,247,4.0,7.2,64,0.00,,,0.00,WUHU21623XXSP,2013-07-24 16:29:00,
2013-07-24 11:34:00,85.6,71.9,29.94,WSW,247,1.6,4.0,63,0.00,,,0.00,WUHU21623XXSP,2013-07-24 16:34:00,
2013-07-24 11:39:00,85.6,72.3,29.93,WSW,247,0.0,2.9,64,0.00,,,0.00,WUHU21623XXSP,2013-07-24 16:39:00,
2013-07-24 11:44:00,86.7,73.3,29.93,WSW,247,5.4,5.4,64,0.00,,,0.00,WUHU21623XXSP,2013-07-24 16:44:00,
2013-07-24 11:49:00,87.0,72.7,29.93,WSW,247,0.0,5.4,62,0.00,,,0.00,WUHU21623XXSP,2013-07-24 16:49:00,
2013-07-24 11:54:00,87.3,73.5,29.93,WSW,247,0.4,2.2,63,0.00,,,0.00,WUHU21623XXSP,2013-07-24 16:54:00,
2013-07-24 11:59:00,87.7,72.9,29.93,WSW,247,0.0,0.4,61,0.00,,,0.00,WUHU21623XXSP,2013-07-24 16:59:00,
2013-07-24 12:04:00,87.0,71.8,29.93,WSW,247,0.0,3.4,60,0.00,,,0.00,WUHU21623XXSP,2013-07-24 17:04:00,
2013-07-24 12:09:00,87.6,73.3,29.93,WSW,247,0.0,3.4,62,0.00,,,0.00,WUHU21623XXSP,2013-07-24 17:09:00,
2013-07-24 12:14:00,88.1,72.7,29.93,WSW,247,0.0,3.4,60,0.00,,,0.00,WUHU21623XXSP,2013-07-24 17:14:00,
2013-07-24 12:19:00,87.8,72.5,29.92,WSW,247,0.9,3.4,60,0.00,,,0.00,WUHU21623XXSP,2013-07-24 17:19:00,
2013-07-24 12:24:00,88.0,72.2,29.92,WSW,247,7.6,7.6,59,0.00,,,0.00,WUHU21623XXSP,2013-07-24 17:24:00,
2013-07-24 12:29:00,87.7,71.9,29.92,WSW,247,3.6,7.6,59,0.00,,,0.00,WUHU21623XXSP,2013-07-24 17:29:00,
2013-07-24 12:34:00,88.2,71.8,29.92,WSW,247,0.0,3.6,58,0.00,,,0.00,WUHU21623XXSP,2013-07-24 17:34:00,
2013-07-24 12:39:00,88.6,72.7,29.92,WSW,247,0.0,1.6,59,0.00,,,0.00,WUHU21623XXSP,2013-07-24 17:39:00,
2013-07-24 12:44:00,89.0,73.1,29.93,WSW,247,0.0,0.0,59,0.00,,,0.00,WUHU21623XXSP,2013-07-24 17:44:00,
2013-07-24 12:49:00,89.9,72.9,29.92,WSW,247,6.0,6.0,57,0.00,,,0.00,WUHU21623XXSP,2013-07-24 17:49:00,
2013-07-24 12:54:00,90.3,72.2,29.92,WSW,247,0.0,6.0,55,0.00,,,0.00,WUHU21623XXSP,2013-07-24 17:54:00,
2013-07-24 12:59:00,90.3,72.2,29.92,WSW,247,0.0,0.0,55,0.00,,,0.00,WUHU21623XXSP,2013-07-24 17:59:00,
2013-07-24 13:04:00,89.1,71.0,29.92,WSW,247,0.0,7.2,55,0.00,,,0.00,WUHU21623XXSP,2013-07-24 18:04:00,
2013-07-24 13:09:00,88.3,70.9,29.92,WSW,247,0.0,7.2,56,0.00,,,0.00,WUHU21623XXSP,2013-07-24 18:09:00,
2013-07-24 13:14:00,88.3,71.4,29.93,WSW,247,0.0,0.0,57,0.00,,,0.00,WUHU21623XXSP,2013-07-24 18:14:00,
2013-07-24 13:19:00,89.0,72.6,29.92,WSW,247,0.0,0.0,58,0.00,,,0.00,WUHU21623XXSP,2013-07-24 18:19:00,
2013-07-24 13:24:00,89.3,72.3,29.93,WSW,247,0.0,0.0,57,0.00,,,0.00,WUHU21623XXSP,2013-07-24 18:24:00,
2013-07-24 13:29:00,88.5,71.6,29.92,WSW,247,0.0,0.0,57,0.00,,,0.00,WUHU21623XXSP,2013-07-24 18:29:00,
2013-07-24 13:34:00,88.5,71.6,29.92,WSW,247,0.0,0.0,57,0.00,,,0.00,WUHU21623XXSP,2013-07-24 18:34:00,
2013-07-24 13:39:00,89.4,72.9,29.92,WSW,247,0.0,0.0,58,0.00,,,0.00,WUHU21623XXSP,2013-07-24 18:39:00,
2013-07-24 13:44:00,90.4,72.9,29.92,WSW,247,0.0,0.0,56,0.00,,,0.00,WUHU21623XXSP,2013-07-24 18:44:00,
2013-07-24 13:49:00,91.5,73.3,29.92,WSW,247,0.0,1.8,55,0.00,,,0.00,WUHU21623XXSP,2013-07-24 18:49:00,
2013-07-24 13:54:00,91.8,73.0,29.91,WSW,247,0.0,6.7,54,0.00,,,0.00,WUHU21623XXSP,2013-07-24 18:54:00,
2013-07-24 13:59:00,91.3,72.5,29.92,WSW,247,0.0,6.7,54,0.00,,,0.00,WUHU21623XXSP,2013-07-24 18:59:00,
2013-07-24 14:04:00,90.8,72.1,29.92,WSW,247,0.0,1.1,54,0.00,,,0.00,WUHU21623XXSP,2013-07-24 19:04:00,
2013-07-24 14:09:00,91.7,73.5,29.92,WSW,247,0.0,0.0,55,0.00,,,0.00,WUHU21623XXSP,2013-07-24 19:09:00,
2013-07-24 14:14:00,92.8,72.8,29.92,WSW,247,6.9,6.9,52,0.00,,,0.00,WUHU21623XXSP,2013-07-24 19:14:00,
2013-07-24 14:19:00,92.9,73.5,29.92,WSW,247,0.0,6.9,53,0.00,,,0.00,WUHU21623XXSP,2013-07-24 19:19:00,
2013-07-24 14:24:00,92.4,72.5,29.91,WSW,247,0.0,1.1,52,0.00,,,0.00,WUHU21623XXSP,2013-07-24 19:24:00,
2013-07-24 14:29:00,91.5,71.6,29.91,WSW,247,3.8,3.8,52,0.00,,,0.00,WUHU21623XXSP,2013-07-24 19:29:00,
2013-07-24 14:34:00,89.8,71.1,29.91,WSW,247,0.0,3.8,54,0.00,,,0.00,WUHU21623XXSP,2013-07-24 19:34:00,
2013-07-24 14:39:00,88.8,70.8,29.91,WSW,247,0.0,0.0,55,0.00,,,0.00,WUHU21623XXSP,2013-07-24 19:39:00,
2013-07-24 14:44:00,88.7,71.3,29.91,WSW,247,0.0,0.0,56,0.00,,,0.00,WUHU21623XXSP,2013-07-24 19:44:00,
2013-07-24 14:49:00,89.2,71.7,29.91,WSW,247,0.0,0.0,56,0.00,,,0.00,WUHU21623XXSP,2013-07-24 19:49:00,
2013-07-24 14:54:00,89.9,72.9,29.91,WSW,247,0.0,0.0,57,0.00,,,0.00,WUHU21623XXSP,2013-07-24 19:54:00,
2013-07-24 14:59:00,90.5,73.0,29.91,WSW,247,0.0,0.0,56,0.00,,,0.00,WUHU21623XXSP,2013-07-24 19:59:00,
2013-07-24 15:04:00,92.3,74.1,29.91,WSW,247,1.1,1.1,55,0.00,,,0.00,WUHU21623XXSP,2013-07-24 20:04:00,
2013-07-24 15:09:00,92.9,73.5,29.91,WSW,247,0.0,1.1,53,0.00,,,0.00,WUHU21623XXSP,2013-07-24 20:09:00,
2013-07-24 15:14:00,91.9,72.6,29.91,WSW,247,0.0,0.0,53,0.00,,,0.00,WUHU21623XXSP,2013-07-24 20:14:00,
2013-07-24 15:19:00,90.3,71.6,29.90,WSW,247,0.0,0.0,54,0.00,,,0.00,WUHU21623XXSP,2013-07-24 20:19:00,
2013-07-24 15:24:00,90.4,71.8,29.90,WSW,247,0.0,0.0,54,0.00,,,0.00,WUHU21623XXSP,2013-07-24 20:24:00,
2013-07-24 15:29:00,90.7,71.5,29.90,WSW,247,3.4,3.4,53,0.00,,,0.00,WUHU21623XXSP,2013-07-24 20:29:00,
2013-07-24 15:34:00,89.6,71.0,29.90,WSW,247,0.0,6.0,54,0.00,,,0.00,WUHU21623XXSP,2013-07-24 20:34:00,
2013-07-24 15:39:00,88.8,70.8,29.90,WSW,247,0.0,6.0,55,0.00,,,0.00,WUHU21623XXSP,2013-07-24 20:39:00,
2013-07-24 15:44:00,88.9,70.4,29.89,WSW,247,4.9,4.9,54,0.00,,,0.00,WUHU21623XXSP,2013-07-24 20:44:00,
2013-07-24 15:49:00,88.3,69.2,29.89,WSW,247,0.0,4.9,53,0.00,,,0.00,WUHU21623XXSP,2013-07-24 20:49:00,
2013-07-24 15:54:00,87.6,69.2,29.89,WSW,247,2.7,2.7,54,0.00,,,0.00,WUHU21623XXSP,2013-07-24 20:54:00,
2013-07-24 15:59:00,87.2,68.7,29.89,WSW,247,2.5,2.7,54,0.00,,,0.00,WUHU21623XXSP,2013-07-24 20:59:00,
2013-07-24 16:04:00,84.9,67.7,29.89,SW,225,2.2,3.4,56,0.00,,,0.00,WUHU21623XXSP,2013-07-24 21:04:00,
2013-07-24 16:09:00,83.6,67.0,29.89,WSW,247,0.0,3.4,57,0.00,,,0.00,WUHU21623XXSP,2013-07-24 21:09:00,
2013-07-24 16:14:00,83.3,66.7,29.89,WSW,247,2.9,5.1,57,0.00,,,0.00,WUHU21623XXSP,2013-07-24 21:14:00,
2013-07-24 16:19:00,84.3,67.1,29.89,WSW,247,8.7,8.7,56,0.00,,,0.00,WUHU21623XXSP,2013-07-24 21:19:00,
2013-07-24 16:24:00,83.4,66.8,29.89,WSW,247,8.3,10.1,57,0.00,,,0.00,WUHU21623XXSP,2013-07-24 21:24:00,
2013-07-24 16:29:00,82.1,66.6,29.89,WSW,247,1.8,10.1,59,0.00,,,0.00,WUHU21623XXSP,2013-07-24 21:29:00,
2013-07-24 16:34:00,81.8,66.3,29.89,SW,225,11.6,11.6,59,0.00,,,0.00,WUHU21623XXSP,2013-07-24 21:34:00,
2013-07-24 16:39:00,80.7,65.8,29.89,SSE,157,8.3,11.6,60,0.00,,,0.00,WUHU21623XXSP,2013-07-24 21:39:00,
2013-07-24 16:44:00,79.9,66.0,29.89,WSW,247,0.0,8.3,62,0.00,,,0.00,WUHU21623XXSP,2013-07-24 21:44:00,
2013-07-24 16:49:00,79.3,65.4,29.89,WSW,247,0.0,4.3,62,0.00,,,0.00,WUHU21623XXSP,2013-07-24 21:49:00,
2013-07-24 16:54:00,78.8,65.4,29.89,South,180,8.7,8.7,63,0.00,,,0.00,WUHU21623XXSP,2013-07-24 21:54:00,
2013-07-24 16:59:00,78.1,64.7,29.89,SSW,202,5.8,8.7,63,0.00,,,0.00,WUHU21623XXSP,2013-07-24 21:59:00,
2013-07-24 17:04:00,77.3,64.4,29.89,WSW,247,7.6,7.6,64,0.00,,,0.00,WUHU21623XXSP,2013-07-24 22:04:00,
2013-07-24 17:09:00,77.5,65.4,29.89,WSW,247,11.2,11.2,66,0.00,,,0.00,WUHU21623XXSP,2013-07-24 22:09:00,
2013-07-24 17:14:00,77.4,65.0,29.89,WSW,247,7.2,11.2,65,0.00,,,0.00,WUHU21623XXSP,2013-07-24 22:14:00,
2013-07-24 17:19:00,78.0,65.5,29.89,WSW,247,8.7,8.7,65,0.00,,,0.00,WUHU21623XXSP,2013-07-24 22:19:00,
2013-07-24 17:24:00,78.6,65.2,29.89,WSW,247,9.8,9.8,63,0.00,,,0.00,WUHU21623XXSP,2013-07-24 22:24:00,
2013-07-24 17:29:00,78.7,65.3,29.89,SSW,202,9.8,9.8,63,0.00,,,0.00,WUHU21623XXSP,2013-07-24 22:29:00,
2013-07-24 17:34:00,78.4,65.5,29.89,WSW,247,10.3,12.8,64,0.00,,,0.00,WUHU21623XXSP,2013-07-24 22:34:00,
2013-07-24 17:39:00,78.7,65.3,29.89,WSW,247,10.3,12.8,63,0.00,,,0.00,WUHU21623XXSP,2013-07-24 22:39:00,
2013-07-24 17:44:00,78.8,65.4,29.89,WSW,247,10.3,10.3,63,0.00,,,0.00,WUHU21623XXSP,2013-07-24 22:44:00,
2013-07-24 17:49:00,79.0,65.2,29.89,WSW,247,8.9,10.3,62,0.00,,,0.00,WUHU21623XXSP,2013-07-24 22:49:00,
2013-07-24 17:54:00,79.2,65.8,29.89,WSW,247,8.7,8.9,63,0.00,,,0.00,WUHU21623XXSP,2013-07-24 22:54:00,
2013-07-24 17:59:00,79.4,65.9,29.89,WSW,247,6.7,8.9,63,0.00,,,0.00,WUHU21623XXSP,2013-07-24 22:59:00,
2013-07-24 18:04:00,79.7,65.8,29.89,South,180,7.6,11.9,62,0.00,,,0.00,WUHU21623XXSP,2013-07-24 23:04:00,
2013-07-24 18:09:00,79.5,65.6,29.89,SW,225,10.7,11.9,62,0.00,,,0.00,WUHU21623XXSP,2013-07-24 23:09:00,
2013-07-24 18:14:00,79.3,65.3,29.89,North,0,11.4,11.4,62,0.00,,,0.00,WUHU21623XXSP,2013-07-24 23:14:00,
2013-07-24 18:19:00,78.3,64.9,29.89,WSW,247,8.3,11.4,63,0.00,,,0.00,WUHU21623XXSP,2013-07-24 23:19:00,
2013-07-24 18:24:00,78.4,65.5,29.89,WSW,247,7.8,8.3,64,0.00,,,0.00,WUHU21623XXSP,2013-07-24 23:24:00,
2013-07-24 18:29:00,78.9,65.9,29.89,WSW,247,10.1,10.1,64,0.00,,,0.00,WUHU21623XXSP,2013-07-24 23:29:00,
2013-07-24 18:34:00,79.3,66.3,29.90,WSW,247,10.7,10.7,64,0.00,,,0.00,WUHU21623XXSP,2013-07-24 23:34:00,
2013-07-24 18:39:00,79.6,66.6,29.90,SSW,202,10.5,10.7,64,0.00,,,0.00,WUHU21623XXSP,2013-07-24 23:39:00,
2013-07-24 18:44:00,79.7,66.7,29.90,WSW,247,5.6,10.5,64,0.00,,,0.00,WUHU21623XXSP,2013-07-24 23:44:00,
2013-07-24 18:49:00,80.4,67.8,29.90,WSW,247,0.0,9.6,65,0.00,,,0.00,WUHU21623XXSP,2013-07-24 23:49:00,
2013-07-24 18:54:00,80.5,67.5,29.90,WSW,247,8.9,11.4,64,0.00,,,0.00,WUHU21623XXSP,2013-07-24 23:54:00,
2013-07-24 18:59:00,80.8,68.1,29.91,WSW,247,10.7,11.4,65,0.00,,,0.00,WUHU21623XXSP,2013-07-24 23:59:00,
2013-07-24 19:04:00,80.7,67.6,29.91,WSW,247,1.6,10.7,64,0.00,,,0.00,WUHU21623XXSP,2013-07-25 00:04:00,
2013-07-24 19:09:00,81.0,67.9,29.91,WSW,247,5.8,10.7,64,0.00,,,0.00,WUHU21623XXSP,2013-07-25 00:09:00,
2013-07-24 19:14:00,81.3,67.8,29.91,WSW,247,2.9,8.9,63,0.00,,,0.00,WUHU21623XXSP,2013-07-25 00:14:00,
2013-07-24 19:19:00,81.7,68.1,29.91,WSW,247,2.5,8.9,63,0.00,,,0.00,WUHU21623XXSP,2013-07-25 00:19:00,
2013-07-24 19:24:00,81.8,67.8,29.91,WSW,247,7.2,7.2,62,0.00,,,0.00,WUHU21623XXSP,2013-07-25 00:24:00,
2013-07-24 19:29:00,82.4,68.3,29.92,WSW,247,0.0,7.2,62,0.00,,,0.00,WUHU21623XXSP,2013-07-25 00:29:00,
2013-07-24 19:34:00,82.4,67.4,29.91,WSW,247,6.7,8.1,60,0.00,,,0.00,WUHU21623XXSP,2013-07-25 00:34:00,
2013-07-24 19:39:00,81.1,66.6,29.91,WSW,247,6.7,8.1,61,0.00,,,0.00,WUHU21623XXSP,2013-07-25 00:39:00,
2013-07-24 19:44:00,80.0,66.1,29.91,NNE,22,0.2,6.7,62,0.00,,,0.00,WUHU21623XXSP,2013-07-25 00:44:00,
2013-07-24 19:49:00,79.0,66.0,29.92,NNE,22,1.1,3.8,64,0.00,,,0.00,WUHU21623XXSP,2013-07-25 00:49:00,
2013-07-24 19:54:00,78.2,65.3,29.92,North,0,0.0,2.0,64,0.00,,,0.00,WUHU21623XXSP,2013-07-25 00:54:00,
2013-07-24 19:59:00,77.9,65.4,29.93,North,0,2.5,2.5,65,0.00,,,0.00,WUHU21623XXSP,2013-07-25 00:59:00,
2013-07-24 20:04:00,77.2,65.2,29.93,NNE,22,0.0,2.5,66,0.00,,,0.00,WUHU21623XXSP,2013-07-25 01:04:00,
2013-07-24 20:09:00,76.8,64.8,29.93,NNE,22,0.0,0.0,66,0.00,,,0.00,WUHU21623XXSP,2013-07-25 01:09:00,
2013-07-24 20:14:00,76.6,64.7,29.93,North,0,0.0,0.0,66,0.00,,,0.00,WUHU21623XXSP,2013-07-25 01:14:00,
2013-07-24 20:19:00,76.2,64.6,29.93,NNE,22,0.0,0.0,67,0.00,,,0.00,WUHU21623XXSP,2013-07-25 01:19:00,
2013-07-24 20:24:00,76.0,64.4,29.93,NNE,22,0.0,0.0,67,0.00,,,0.00,WUHU21623XXSP,2013-07-25 01:24:00,
2013-07-24 20:29:00,75.6,64.5,29.93,North,0,0.0,0.0,68,0.00,,,0.00,WUHU21623XXSP,2013-07-25 01:29:00,
2013-07-24 20:34:00,75.3,64.6,29.93,NNE,22,0.0,0.0,69,0.00,,,0.00,WUHU21623XXSP,2013-07-25 01:34:00,
2013-07-24 20:39:00,74.9,64.2,29.93,NNE,22,0.0,0.0,69,0.00,,,0.00,WUHU21623XXSP,2013-07-25 01:39:00,
2013-07-24 20:44:00,74.7,64.0,29.93,NNE,22,0.0,0.0,69,0.00,,,0.00,WUHU21623XXSP,2013-07-25 01:44:00,
2013-07-24 20:49:00,74.4,64.2,29.94,NNE,22,0.0,0.0,70,0.00,,,0.00,WUHU21623XXSP,2013-07-25 01:49:00,
2013-07-24 20:54:00,74.0,63.8,29.94,NNE,22,0.0,0.0,70,0.00,,,0.00,WUHU21623XXSP,2013-07-25 01:54:00,
2013-07-24 20:59:00,73.8,63.6,29.94,NNE,22,0.0,0.0,70,0.00,,,0.00,WUHU21623XXSP,2013-07-25 01:59:00,
2013-07-24 21:04:00,73.8,64.0,29.94,NNE,22,0.0,0.0,71,0.00,,,0.00,WUHU21623XXSP,2013-07-25 02:04:00,
2013-07-24 21:09:00,73.7,64.3,29.94,NNE,22,0.0,0.0,72,0.00,,,0.00,WUHU21623XXSP,2013-07-25 02:09:00,
2013-07-24 21:14:00,73.6,64.2,29.94,NNE,22,0.0,0.0,72,0.00,,,0.00,WUHU21623XXSP,2013-07-25 02:14:00,
2013-07-24 21:19:00,73.2,63.8,29.94,NNE,22,0.0,0.0,72,0.00,,,0.00,WUHU21623XXSP,2013-07-25 02:19:00,
2013-07-24 21:24:00,73.0,64.0,29.94,NNE,22,0.0,0.0,73,0.00,,,0.00,WUHU21623XXSP,2013-07-25 02:24:00,
2013-07-24 21:29:00,72.7,63.7,29.95,NNE,22,0.0,0.0,73,0.00,,,0.00,WUHU21623XXSP,2013-07-25 02:29:00,
2013-07-24 21:34:00,72.7,63.7,29.95,NNE,22,0.0,0.0,73,0.00,,,0.00,WUHU21623XXSP,2013-07-25 02:34:00,
2013-07-24 21:39:00,72.5,63.9,29.96,North,0,3.6,3.6,74,0.00,,,0.00,WUHU21623XXSP,2013-07-25 02:39:00,
2013-07-24 21:44:00,72.2,63.6,29.95,North,0,0.0,3.6,74,0.00,,,0.00,WUHU21623XXSP,2013-07-25 02:44:00,
2013-07-24 21:45:00,72.2,63.6,29.95,North,0,0.0,3.6,74,0.00,,,0.00,WUHU21623XXSP,2013-07-25 02:45:00,
2013-07-24 21:50:00,72.2,63.6,29.96,North,0,0.0,0.0,74,0.00,,,0.00,WUHU21623XXSP,2013-07-25 02:50:00,
2013-07-24 21:55:00,72.1,63.5,29.96,North,0,0.0,0.0,74,0.00,,,0.00,WUHU21623XXSP,2013-07-25 02:55:00,
2013-07-24 22:00:00,71.9,63.3,29.96,NNE,22,0.0,0.0,74,0.00,,,0.00,WUHU21623XXSP,2013-07-25 03:00:00,
2013-07-24 22:05:00,71.9,63.3,29.96,NNE,22,0.0,0.0,74,0.00,,,0.00,WUHU21623XXSP,2013-07-25 03:05:00,
2013-07-24 22:10:00,71.7,63.2,29.97,NNE,22,0.0,0.0,74,0.00,,,0.00,WUHU21623XXSP,2013-07-25 03:10:00,
2013-07-24 22:15:00,71.6,63.0,29.97,NNE,22,0.0,0.0,74,0.00,,,0.00,WUHU21623XXSP,2013-07-25 03:15:00,
2013-07-24 22:20:00,71.6,63.0,29.98,NNE,22,0.0,0.0,74,0.00,,,0.00,WUHU21623XXSP,2013-07-25 03:20:00,
2013-07-24 22:26:00,71.4,63.2,29.97,NNE,22,0.0,0.0,75,0.00,,,0.00,WUHU21623XXSP,2013-07-25 03:26:00,
2013-07-24 22:31:00,71.3,63.1,29.97,NNE,22,0.0,0.0,75,0.00,,,0.00,WUHU21623XXSP,2013-07-25 03:31:00,
2013-07-24 22:36:00,71.1,63.0,29.97,NNE,22,0.0,0.0,75,0.00,,,0.00,WUHU21623XXSP,2013-07-25 03:36:00,
2013-07-24 22:41:00,71.0,62.8,29.98,NNE,22,0.0,0.0,75,0.00,,,0.00,WUHU21623XXSP,2013-07-25 03:41:00,
2013-07-24 22:46:00,71.0,62.8,29.98,NNE,22,0.0,0.0,75,0.00,,,0.00,WUHU21623XXSP,2013-07-25 03:46:00,
2013-07-24 22:51:00,70.8,62.6,29.98,NNE,22,0.0,0.0,75,0.00,,,0.00,WUHU21623XXSP,2013-07-25 03:51:00,
2013-07-24 22:56:00,70.8,63.0,29.99,NNE,22,0.0,0.0,76,0.00,,,0.00,WUHU21623XXSP,2013-07-25 03:56:00,
2013-07-24 23:01:00,70.6,62.8,29.99,NNE,22,0.0,0.0,76,0.00,,,0.00,WUHU21623XXSP,2013-07-25 04:01:00,
2013-07-24 23:02:00,70.6,62.8,29.99,NNE,22,0.0,0.0,76,0.00,,,0.00,WUHU21623XXSP,2013-07-25 04:02:00,
2013-07-24 23:07:00,70.7,62.9,29.98,NNE,22,0.0,0.0,76,0.00,,,0.00,WUHU21623XXSP,2013-07-25 04:07:00,
2013-07-24 23:12:00,70.4,62.6,29.99,NNE,22,0.0,0.0,76,0.00,,,0.00,WUHU21623XXSP,2013-07-25 04:12:00,
2013-07-24 23:17:00,70.4,62.6,29.99,NNE,22,0.0,0.0,76,0.00,,,0.00,WUHU21623XXSP,2013-07-25 04:17:00,
2013-07-24 23:22:00,70.0,62.3,29.98,NNE,22,0.0,0.0,76,0.00,,,0.00,WUHU21623XXSP,2013-07-25 04:22:00,
2013-07-24 23:27:00,70.1,62.3,29.99,NNE,22,0.0,0.0,76,0.00,,,0.00,WUHU21623XXSP,2013-07-25 04:27:00,
2013-07-24 23:32:00,69.9,62.5,29.98,NNE,22,0.0,0.0,77,0.00,,,0.00,WUHU21623XXSP,2013-07-25 04:32:00,
2013-07-24 23:37:00,69.9,62.5,29.99,NNE,22,0.0,0.0,77,0.00,,,0.00,WUHU21623XXSP,2013-07-25 04:37:00,
2013-07-24 23:42:00,69.8,62.4,29.98,NNE,22,0.0,0.0,77,0.00,,,0.00,WUHU21623XXSP,2013-07-25 04:42:00,
2013-07-24 23:47:00,69.7,62.2,29.98,NNE,22,0.0,0.0,77,0.00,,,0.00,WUHU21623XXSP,2013-07-25 04:47:00,
2013-07-24 23:52:00,69.7,62.6,29.98,NNE,22,0.0,0.0,78,0.00,,,0.00,WUHU21623XXSP,2013-07-25 04:52:00,
2013-07-24 23:57:00,69.3,62.3,29.98,NNE,22,0.0,0.0,78,0.00,,,0.00,WUHU21623XXSP,2013-07-25 04:57:00,